User: anonymous   Login
Location: *
(50.9167°S, 179.4000°W)
Time: 18:55:07
(UTC+00:00)
Language:

Cosmos 1606 Rocket - Orbit

View from above orbital plane
View from above orbital plane
View from above satellite
View from above satellite

Ground track
Ground track

The orbit data is extracted from the following two-line orbital elements,

1 15370U 84111B   24141.53410634  .00001249  00000-0  14385-3 0  9999
2 15370  82.5146 155.3986 0020243 354.6445   5.4550 14.84825106139262
Epoch (UTC): 20 May 2024 12:49:06
Eccentricity: 0.0020243
inclination: 82.5146°
perigee height: 600 km
apogee height: 628 km
right ascension of ascending node: 155.3986°
argument of perigee: 354.6445°
revolutions per day: 14.84825106
mean anomaly at epoch: 5.4550°
orbit number at epoch: 13926

The dashed part of the orbit path shows where the satellite is in the earth's shadow,  

DLR